{"data":{"norad_id":52156,"epoch":"2026-05-25T04:11:22.448832Z","epoch_age_seconds":60124,"freshness":"FRESH","line1":"1 52156U 22032D   26145.17456538  .00004226  00000+0  25712-3 0  9998","line2":"2 52156  97.5839 197.7220 0005380 223.8581 136.2222 15.10962560227379","mean_motion":15.1096256,"eccentricity":0.000538,"inclination_deg":97.5839,"raan_deg":197.722,"arg_perigee_deg":223.8581,"mean_anomaly_deg":136.2222,"bstar":0.00025712,"rev_number":22737,"period_min":95.303486540394,"perigee_km":529.54483500969,"apogee_km":536.98150159079,"semimajor_km":6911.4001683002,"source":"CELESTRAK","updated_at":"2026-05-25T13:37:57.648418Z"}}